This demonstration page uses our WeatherBlox Daily Observations layout. Learn more.

38.88101, -77.10428

Hourly Observations for June 4, 2019

Temp ( °F °C ) Dew Point ( °F °C ) Humidity (%) Winds ( mph kmh ) Pressure ( in mb ) Visibility ( mi km ) Precip ( " mm )
12:52 am 00:52 Clear 61 16.1 41 5 48 48 NNW 5 7 30.11 1020 10 16.0934 0 0
1:52 am 01:52 Clear 59 15 41 5 51 51 N 6 9 30.11 1020 10 16.0934 0 0
2:52 am 02:52 Clear 60 15.6 40 4.4 47 47 WNW 5 7 30.12 1020 10 16.0934 0 0
3:52 am 03:52 Clear 58 14.4 40 4.4 51 51 WNW 5 7 30.13 1020 10 16.0934 0 0
4:52 am 04:52 Partly Cloudy 56 13.3 42 5.6 60 60 W 3 6 30.15 1021 10 16.0934 0 0
5:52 am 05:52 Mostly Cloudy 57 13.9 40 4.4 53 53 Calm 30.16 1021 10 16.0934 0 0
6:52 am 06:52 Mostly Cloudy 59 15 42 5.6 54 54 Calm 30.19 1022 10 16.0934 0 0
7:52 am 07:52 Partly Cloudy 62 16.7 42 5.6 48 48 N 9 15 30.21 1023 10 16.0934 0 0
8:52 am 08:52 Partly Cloudy 66 18.9 42 5.6 42 42 N 9 15 30.22 1023 10 16.0934 0 0
9:52 am 09:52 Partly Cloudy 68 20 39 3.9 35 35 NNE 7 11 30.21 1023 10 16.0934 0 0
10:52 am 10:52 Mostly Sunny 69 20.6 37 2.8 31 31 VRB 6 9 30.19 1023 10 16.0934 0 0
11:52 am 11:52 Mostly Sunny 72 22.2 39 3.9 30 30 W 10 17 30.18 1022 10 16.0934 0 0
12:52 pm 12:52 Mostly Sunny 74 23.3 41 5 31 31 WNW 7 11 30.16 1022 10 16.0934 0 0
1:52 pm 13:52 Mostly Sunny 75 23.9 41 5 29 29 WNW 9 15 30.14 1021 10 16.0934 0 0
2:52 pm 14:52 Partly Cloudy 76 24.4 42 5.6 30 30 W 12 19 30.13 1020 10 16.0934 0 0
3:52 pm 15:52 Mostly Sunny 77 25 43 6.1 30 30 W 12 19 30.1 1019 10 16.0934 0 0
4:52 pm 16:52 Mostly Sunny 77 25 45 7.2 32 32 SSW 12 19 30.07 1018 10 16.0934 0 0
5:52 pm 17:52 Mostly Sunny 76 24.4 49 9.4 39 39 S 14 22 30.05 1018 10 16.0934 0 0
6:52 pm 18:52 Sunny 75 23.9 48 8.9 39 39 S 12 19 30.05 1018 10 16.0934 0 0
7:52 pm 19:52 Partly Cloudy 74 23.3 50 10 43 43 S 10 17 30.04 1017 10 16.0934 0 0
8:52 pm 20:52 Partly Cloudy 72 22.2 51 10.6 48 48 S 9 15 30.04 1017 10 16.0934 0 0
9:52 pm 21:52 Mostly Clear 72 22.2 52 11.1 50 50 S 13 20 30.03 1017 10 16.0934 0 0
10:52 pm 22:52 Partly Cloudy 71 21.7 52 11.1 51 51 S 13 20 30.04 1017 10 16.0934 0 0
11:52 pm 23:52 Partly Cloudy 68 20 55 12.8 63 63 S 9 15 30.04 1017 10 16.0934 0 0

Powered by AerisWeather